West Lafayette, IN

8:28 PM EST on December 10, 2016 (GMT -0500)
Purdue Univ

Weather History for KLAF - June, 2014

Change the Weather History Date:

Tuesday, June 3, 2014

  Actual Average Record
Temperature  
Mean Temperature 74 °F 68 °F  
Max Temperature 87 °F 79 °F 91 °F (2002)
Min Temperature 60 °F 57 °F 39 °F (1977)
Degree Days  
Heating Degree Days 0 2  
Month to date heating degree days 0 6  
Since 1 June heating degree days 0 6  
Since 1 July heating degree days 6546 5656  
Cooling Degree Days 9 5  
Month to date cooling degree days 27 13  
Year to date cooling degree days 124 90  
Since 1 June cooling degree days 27 13  
Growing Degree Days 26 (Base 50)    
Moisture  
Dew Point 59 °F    
Average Humidity 62    
Maximum Humidity 100    
Minimum Humidity 23    
Precipitation  
Precipitation 0.00 in 0.15 in 2.23 in (1989)
Month to date precipitation 0.33 0.46  
Year to date precipitation 13.16 14.48  
Sea Level Pressure  
Sea Level Pressure 29.92 in    
Wind  
Wind Speed 9 mph (West)    
Max Wind Speed 21 mph    
Max Gust Speed 29 mph    
Visibility 10 miles    
Events      
T = Trace of Precipitation, MM = Missing Value Source: NWS Daily Summary

Daily Weather History Graph

Daily Weather History Graph

Search for Another Location

Airport or City:

Trip Planner

Search our weather history database for the weather conditions in past years. The results will help you decide how hot, cold, wet, or windy it might be!

Date:

Astronomy

Jun. 03, 2014 Rise Set
Actual Time 6:18 AM EDT 9:13 PM EDT
Civil Twilight 5:46 AM EDT 9:45 PM EDT
Nautical Twilight 5:05 AM EDT 10:27 PM EDT
Astronomical Twilight 4:17 AM EDT 11:14 PM EDT
Moon 11:42 AM EDT (6/3) 12:40 AM EDT (6/3)
Length of Visible Light 15h 59m
Length of Day
14h 54m
Waxing Crescent, 30% of the Moon is Illuminated
Jun 3
Waxing Crescent
Jun 5
First Quarter
Jun 13
Full
Jun 19
Last Quarter
Jun 27
New

Hourly Weather History & Observations

Time (EDT) Temp. Heat Index Dew Point Humidity Pressure Visibility Wind Dir Wind Speed Gust Speed Precip Events Conditions
12:54 AM 69.1 °F - 66.9 °F 93% 29.93 in 10.0 mi SW 9.2 mph - N/A   Overcast
1:54 AM 68.0 °F - 66.9 °F 96% 29.92 in 9.0 mi SW 4.6 mph - N/A   Mostly Cloudy
2:54 AM 66.9 °F - 66.0 °F 97% 29.92 in 8.0 mi SW 5.8 mph - N/A   Mostly Cloudy
3:54 AM 68.0 °F - 66.9 °F 96% 29.91 in 8.0 mi WSW 4.6 mph - N/A   Mostly Cloudy
4:54 AM 68.0 °F - 66.9 °F 96% 29.91 in 8.0 mi WSW 6.9 mph - N/A   Partly Cloudy
5:54 AM 69.1 °F - 68.0 °F 96% 29.92 in 10.0 mi WSW 5.8 mph - N/A   Partly Cloudy
6:54 AM 69.1 °F - 66.9 °F 93% 29.94 in 9.0 mi WSW 5.8 mph - N/A   Clear
7:54 AM 71.1 °F - 68.0 °F 90% 29.95 in 10.0 mi WSW 8.1 mph - N/A   Clear
8:54 AM 73.0 °F - 68.0 °F 84% 29.95 in 10.0 mi WSW 10.4 mph - N/A   Partly Cloudy
9:54 AM 75.9 °F - 66.0 °F 71% 29.96 in 10.0 mi West 11.5 mph - N/A   Clear
10:54 AM 77.0 °F - 64.0 °F 64% 29.95 in 10.0 mi West 10.4 mph - N/A   Clear
11:54 AM 80.1 °F 81.5 °F 63.0 °F 56% 29.96 in 10.0 mi NW 12.7 mph - N/A   Clear
12:54 PM 82.0 °F 82.1 °F 59.0 °F 45% 29.96 in 10.0 mi West 13.8 mph - N/A   Clear
1:54 PM 82.9 °F 82.4 °F 57.0 °F 41% 29.96 in 10.0 mi WNW 17.3 mph 25.3 mph N/A   Scattered Clouds
2:54 PM 84.0 °F 82.6 °F 54.0 °F 35% 29.93 in 10.0 mi West 15.0 mph 20.7 mph N/A   Clear
3:54 PM 86.0 °F - 51.1 °F 30% 29.92 in 10.0 mi West 11.5 mph 20.7 mph N/A   Clear
4:54 PM 86.0 °F - 48.9 °F 28% 29.91 in 10.0 mi WNW 12.7 mph 21.9 mph N/A   Clear
5:54 PM 84.9 °F - 43.0 °F 23% 29.91 in 10.0 mi WNW 16.1 mph 24.2 mph N/A   Clear
6:54 PM 84.0 °F - 44.1 °F 25% 29.89 in 10.0 mi WNW 12.7 mph 21.9 mph N/A   Clear
7:54 PM 82.0 °F - 46.0 °F 28% 29.88 in 10.0 mi WNW 6.9 mph - N/A   Clear
8:54 PM 75.9 °F - 51.1 °F 42% 29.89 in 10.0 mi NW 6.9 mph - N/A   Clear
9:54 PM 66.0 °F - 57.0 °F 73% 29.89 in 10.0 mi WSW 3.5 mph - N/A   Clear
11:54 PM 64.0 °F - 55.0 °F 73% 29.89 in 10.0 mi NE 3.5 mph - N/A   Clear